#timestamp,LO_Frequency,Hit,StdDev 
1630504815.3,286047000.0,N
1630504835.2,286047002.8,N
1630504855.0,286046999.7,N
1630504855.9,286046999.7,N
1630504875.8,286047000.0,N
1630504895.6,286047000.0,N
1630504915.4,286047001.0,N
1630504935.3,286047000.9,N
1630504955.1,286047001.2,N
1630504975.8,286047000.5,N
1630504995.7,286046999.8,N
1630505015.5,286047002.7,N
1630505035.4,286047001.0,N
1630505055.2,286047000.3,N
1630505075.0,286047002.4,N
1630505075.9,286047002.4,N
1630505095.8,286047002.7,N
1630505115.6,286046999.7,N
1630505135.4,286046999.7,N
1630505155.3,286046999.8,N
1630505175.1,286047000.1,N
1630505195.9,286047002.8,N
1630505215.7,286047001.4,N
1630505235.5,286047001.4,N
1630505255.4,286047001.6,N
1630505275.2,286047002.1,N
1630505295.0,286047000.0,N
1630505295.9,286047000.0,N
1630505315.8,286047001.0,N
1630505335.6,286047000.4,N
1630505355.5,286047000.4,N
1630505375.3,286046998.5,N
1630505395.1,286046998.2,N
1630505415.9,286046999.1,N
1630505435.7,286046999.4,N
1630505455.5,286046999.0,N
1630505475.4,286046998.6,N
1630505495.2,286046999.4,N
1630505515.1,286046998.9,N
1630505516.0,286046998.9,N
1630505535.8,286046999.3,N
1630505555.6,286047000.6,N
1630505575.5,286046999.8,N
1630505595.3,286047002.3,N
1630505615.1,286047002.3,N
1630505635.9,286047002.7,N
1630505655.7,286047002.0,N
1630505675.6,286047002.2,N
1630505695.4,286047002.1,N
1630505715.2,286047001.8,N
1630505735.1,286047002.1,N
1630505736.0,286047002.1,N
1630505755.8,286046999.7,N
1630505775.6,286047000.2,N
1630505795.5,286047002.7,N
1630505815.3,286047002.5,N
1630505835.2,286047000.2,N
1630505855.9,286047002.5,N
1630505875.7,286047002.7,N
1630505895.6,286047002.5,N
1630505915.4,286047002.8,N
1630505935.2,286047000.1,N
1630505955.1,286047002.4,N
1630505956.0,286047002.4,N
1630505975.8,286047002.2,N
1630505995.7,286047001.0,N
1630506015.5,286046998.1,N
1630506035.3,286047000.9,N
1630506055.2,286046998.1,N
1630506075.0,286046999.6,N
1630506075.9,286046999.6,N
1630506095.8,286046998.6,N
1630506115.6,286047000.8,N
1630506135.4,286046998.7,N
1630506155.3,286046998.1,N
1630506175.1,286046999.9,N
1630506195.8,286047000.3,N
1630506215.7,286047000.3,N
1630506235.5,286047002.4,N
1630506255.3,286047002.6,N
1630506275.2,286047001.3,N
1630506295.0,286047002.7,N
1630506295.9,286047002.7,N
1630506315.8,286046998.2,N
1630506335.6,286046996.5,N
1630506355.4,286046998.7,N
1630506375.3,286046998.3,N
1630506395.1,286046997.0,N
1630506415.8,286046997.1,N
1630506435.7,286046996.6,N
1630506455.5,286046995.3,N
1630506475.4,286046998.0,N
1630506495.2,286046997.7,N
1630506515.0,286046995.4,N
1630506515.9,286046995.4,N
1630506535.8,286046995.9,N
1630506555.6,286046995.4,N
1630506575.5,286046994.9,N
1630506595.3,286046996.4,N
1630506615.1,286046997.5,N
1630506635.9,286046997.8,N
1630506655.7,286046997.2,N
1630506675.5,286046997.1,N
1630506695.4,286046997.7,N
1630506715.2,286046999.6,N
1630506735.1,286046999.5,N
1630506736.0,286046999.5,N
1630506755.8,286047001.2,N
1630506775.6,286047000.7,N
1630506795.5,286047000.4,N
1630506815.3,286047000.0,N
1630506835.2,286047002.1,N
1630506855.9,286047001.7,N
1630506875.7,286047002.3,N
1630506895.6,286047002.0,N
1630506915.4,286047002.6,N
1630506935.2,286047002.6,N
1630506955.1,286047001.6,N
1630506956.0,286047001.6,N
1630506975.8,286047003.9,N
1630506995.7,286047001.7,N
1630507015.5,286047004.1,N
1630507035.3,286047003.0,N
1630507055.2,286047003.9,N
1630507075.0,286047003.9,N
1630507075.9,286047003.9,N
1630507095.8,286047003.8,N
1630507115.6,286047004.1,N
1630507135.4,286047001.7,N
1630507155.3,286047002.5,N
1630507175.1,286047001.6,N
1630507195.8,286047001.8,N
1630507215.7,286047001.3,N
1630507235.5,286047004.0,N
1630507255.4,286047003.8,N
1630507275.2,286047004.3,Y
1630507295.0,286047002.4,P
1630507295.9,286047002.4,P
1630507315.8,286047000.6,P
1630507335.6,286047000.2,N
1630507355.4,286047000.3,N
1630507375.3,286047002.3,N
1630507395.1,286046998.6,N
1630507415.9,286046998.4,N
1630507435.7,286046998.3,N
1630507455.5,286046996.6,N
1630507475.4,286046997.6,N
1630507495.2,286046997.5,N
1630507515.0,286046999.4,N
1630507515.9,286046999.4,N
1630507535.8,286046996.8,N
1630507555.6,286046998.0,N
1630507575.5,286046997.8,N
1630507595.3,286046997.1,N
1630507615.1,286046997.3,N
1630507635.9,286046996.5,N
1630507655.7,286046998.8,N
1630507675.5,286046999.3,N
1630507695.4,286046996.9,N
1630507715.2,286046996.5,N
1630507735.1,286046997.2,N
1630507736.0,286046997.2,N
1630507755.8,286046996.9,N
1630507775.6,286046998.1,N
1630507795.5,286047000.4,N
1630507815.3,286047000.1,N
1630507835.1,286047000.5,N
1630507855.9,286047000.4,N
1630507875.7,286046999.7,N
1630507895.6,286047002.4,N
1630507915.4,286047000.1,N
1630507935.2,286047000.7,N
1630507955.1,286047000.5,N
1630507956.0,286047000.5,N
1630507975.8,286047002.6,N
1630507995.7,286046999.7,N
1630508015.5,286047000.1,N
1630508035.3,286046999.8,N
1630508055.2,286047002.4,N
1630508075.9,286047000.5,N
1630508095.7,286047000.6,N
1630508115.6,286047000.9,N
1630508135.4,286047000.0,N
1630508155.3,286047000.1,N
1630508175.1,286047000.2,N
1630508176.0,286047000.2,N
1630508195.8,286047000.1,N
1630508215.7,286047000.1,N
1630508235.5,286047001.4,N
1630508255.4,286047001.6,N
1630508275.2,286047001.4,N
1630508295.0,286047004.1,Y
1630508295.9,286047004.1,P
1630508315.8,286047004.8,N
1630508335.6,286047005.4,N
1630508355.4,286047007.3,Y
1630508375.3,286047002.4,P
1630508395.1,286046999.9,N
